Showing default

TEMISAT, 22783

Orbit data source: Space-Track

TEMISAT, 22783 is a payload satellite owned by Telespazio (IT) in LEO that was launched on Tue, 31 Aug 1993 UTC via a TSIKLON-3 launch vehicle from the Plesetsk Missile And Space Complex (PKMTR). Payload-class satellites include a variety of spacecraft equipped with specific instruments for various scientific and technological missions. These include communications satellites like Starlink; space stations such as the ISS; scientific satellites like the Hubble; Earth observation satellites from companies like Planet Labs, Umbra, and HawkEye 360; GPS; miniature CubeSats for education and research; and military/defense satellites.

Loading next visibility...
Identifier
22783, 1993-055B
Orbit
LEO
Country
Flag of ITIT
Related business
Manufacturer
Kayser-Threde
Mission
Commercial Communications
Bus & Motor
TEMISAT, Unknown motor
Mass
~42 kg wet, ~42 kg dry
Launch date (UTC)
1993-08-31 (33 years ago)
Launch vehicle
TSIKLON-3
Launch site
Plesetsk Missile And Space Complex (PKMTR)
Object type
Payload
Rocket body
Debris
Shape & HBR
Hex Poly, 0.3 m
Radar Cross Section
0.140 m², Medium (>0.1 m² and < 1m²)

Expand to show TLE details & history
Last TLE update: 13 hours ago

TLE from 13 hours ago
0 TEMISAT
1 22783U 93055B   26264.28893279  .00000045  00000-0  27526-4 0  9997
2 22783  82.5508 221.6841 0021645 301.1669  58.7368 13.83900757669001
Epoch: 2026-09-21T06:56Z
TLE epoch observation values (Epoch: 2026-09-21T06:56:03.793Z)
Latitude
-0.00005°
Longitude
117.49739°
Altitude
944.777 km
Speed
7.384 km/s
True Right ascension
14h 46m 44s
True Declination
0° 00' 00"
Sunlit
Object was in daylight at epoch
Visualization orbit readout
Latitude
Unknown
Longitude
Unknown
Altitude
Unknown
Speed
Unknown
Apparent Right ascension
Unknown
Apparent Declination
Unknown
Sunlit
N/A
Visualization observer readout
Local Sidereal Time
12:53:34
Azimuth
Unknown
Elevation
Unknown
Doppler factor
Unknown
Orbital elements
Apogee altitude
963.091 km
Perigee altitude
931.38 km
Semi-major axis
7,325.373 km
Eccentricity
0.00216
Inclination
82.5508°
RAAN
221.6841°
Arg. of periapsis
301.1669°
True anomaly
58.94911°
Mean anomaly
58.7368°
Eccentric anomaly
58.84293°
Mean motion
3.46177 °/min
Orbital period
103.99 mins
BSTAR
0.000027526
Loading maneuver chart data...
Computing Atmospheric mass density...
Loading historical data...
Loading historical data...
Loading historical data...
Loading historical data...
Loading historical data...
Loading historical data...
Loading historical data...
Other satellites on launch #55 in the year 1993 (1993-08-31 UTC)

Documentation

Showing up to 5 results
|